Ketchikan, AK

5:44 AM AKST on December 18, 2018 (GMT -0900)
Ketchikan International

Weather History for PAKT - May, 2018

Change the Weather History Date:

Wednesday, May 16, 2018

  Actual Average Record
Temperature  
Mean Temperature 54 °F -  
Max Temperature 62 °F 55 °F 71 °F (2014)
Min Temperature 46 °F 41 °F 33 °F (2003)
Degree Days  
Heating Degree Days 12    
Growing Degree Days 4 (Base 50)    
Moisture  
Dew Point 39 °F    
Average Humidity 57    
Maximum Humidity 77    
Minimum Humidity 42    
Precipitation  
Precipitation 0.00 in - - ()
Sea Level Pressure  
Sea Level Pressure 30.11 in    
Wind  
Wind Speed 10 mph (NW)    
Max Wind Speed 16 mph    
Max Gust Speed -    
Visibility 10 miles    
Events      
Averages and records for this station are not official NWS values.
T = Trace of Precipitation, MM = Missing Value Source: NWS Daily Summary

Daily Weather History Graph

Daily Weather History Graph

Search for Another Location

Airport or City:

Astronomy

May. 16, 2018 Rise Set
Actual Time 4:35 AM AKDT 8:52 PM AKDT
Civil Twilight 3:46 AM AKDT 9:41 PM AKDT
Nautical Twilight 2:31 AM AKDT 10:57 PM AKDT
Astronomical Twilight 1:15 AM AKDT 12:10 AM AKDT
Moon 5:58 AM AKDT (5/16) 10:28 PM AKDT (5/16)
Length of Visible Light 17h 55m
Length of Day
16h 17m
New Moon, 3% of the Moon is Illuminated
May 16
New Moon
May 21
First Quarter
May 29
Full
Jun 6
Last Quarter
Jun 13
New

Hourly Weather History & Observations

Time (AKDT) Temp. Dew Point Humidity Pressure Visibility Wind Dir Wind Speed Gust Speed Precip Events Conditions
12:53 AM 50.0 °F 37.0 °F 61% 30.05 in 10.0 mi NW 8.1 mph - N/A   Clear
1:53 AM 48.9 °F 37.9 °F 66% 30.06 in 10.0 mi NW 8.1 mph - N/A   Clear
3:53 AM 48.0 °F 37.9 °F 68% 30.06 in 10.0 mi NW 8.1 mph - N/A   Clear
4:53 AM 46.9 °F 37.9 °F 71% 30.08 in 10.0 mi NW 9.2 mph - N/A   Clear
5:53 AM 46.9 °F 39.9 °F 77% 30.08 in 10.0 mi NW 8.1 mph - N/A   Clear
6:10 AM 48.9 °F 39.0 °F 69% 30.08 in 10.0 mi NNW 11.5 mph - N/A   Clear
6:53 AM 51.8 °F 37.4 °F 58% 30.09 in 10.0 mi NNW 11.5 mph - N/A   Clear
7:53 AM 51.8 °F 37.4 °F 58% 30.09 in 10.0 mi NNW 16.1 mph - N/A   Clear
8:53 AM 53.6 °F 37.4 °F 54% 30.11 in 10.0 mi NNW 10.4 mph - N/A   Clear
9:53 AM 55.4 °F 39.2 °F 54% 30.11 in 10.0 mi NNW 12.7 mph - N/A   Clear
10:53 AM 57.2 °F 37.4 °F 48% 30.12 in 10.0 mi NNW 13.8 mph - N/A   Clear
11:53 AM 57.2 °F 39.2 °F 51% 30.13 in 10.0 mi NNW 16.1 mph - N/A   Clear
12:53 PM 60.8 °F 37.4 °F 42% 30.14 in 10.0 mi NNW 13.8 mph - N/A   Clear
1:53 PM 59.0 °F 39.2 °F 48% 30.14 in 10.0 mi NNW 13.8 mph - N/A   Clear
2:53 PM 60.8 °F 37.4 °F 42% 30.14 in 10.0 mi NNW 13.8 mph - N/A   Clear
3:53 PM 60.1 °F 39.0 °F 46% 30.13 in 10.0 mi NNW 13.8 mph - N/A   Clear
4:53 PM 60.8 °F 37.4 °F 42% 30.13 in 10.0 mi NNW 11.5 mph - N/A   Clear
5:53 PM 61.0 °F 37.9 °F 42% 30.13 in 10.0 mi NNW 10.4 mph - N/A   Clear
6:53 PM 59.0 °F 39.2 °F 48% 30.13 in 10.0 mi NW 8.1 mph - N/A   Clear
7:53 PM 55.4 °F 42.8 °F 63% 30.14 in 10.0 mi NW 6.9 mph - N/A   Clear
8:53 PM 51.8 °F 44.6 °F 76% 30.15 in 10.0 mi WNW 5.8 mph - N/A   Clear
10:53 PM 51.1 °F 41.0 °F 68% 30.16 in 10.0 mi NNW 5.8 mph - N/A   Clear
11:53 PM 52.0 °F 41.0 °F 66% 30.16 in 10.0 mi NNW 10.4 mph - N/A   Clear